• In Germany
  • List of Countries
  • For 7 days
  • Water Temperature
  • Satellite Maps
  • Weather Map
  • Weather Widgets
  • user-avatar
    Login

    Hourly Weather Denisovskiy

    Today, 21 July, Saturday

    Time Temperature Precipitation Wind Pressure Humidity
    00:00 +26°C° 0 mm 2 mps 745 mmHg 59%
    01:00 +26°C° 0.1 mm 2 mps 745 mmHg 61%
    02:00 +25°C° 0.1 mm 2 mps 745 mmHg 63%
    03:00 +25°C° 0.1 mm 3 mps 746 mmHg 65%
    04:00 +25°C° 0 mm 3 mps 746 mmHg 67%
    05:00 +25°C° 0 mm 3 mps 746 mmHg 69%
    06:00 +25°C° 0 mm 4 mps 746 mmHg 70%
    07:00 +26°C° 0 mm 4 mps 746 mmHg 65%
    08:00 +27°C° 0 mm 5 mps 746 mmHg 59%
    09:00 +29°C° 0 mm 5 mps 747 mmHg 53%
    10:00 +30°C° 0 mm 5 mps 746 mmHg 49%
    11:00 +32°C° 0 mm 5 mps 746 mmHg 46%
    12:00 +33°C° 0 mm 6 mps 746 mmHg 42%
    13:00 +34°C° 0 mm 5 mps 746 mmHg 40%
    14:00 +34°C° 0 mm 5 mps 746 mmHg 39%
    15:00 +35°C° 0 mm 5 mps 746 mmHg 37%
    16:00 +34°C° 0 mm 5 mps 746 mmHg 38%
    17:00 +34°C° 0 mm 5 mps 745 mmHg 40%
    18:00 +33°C° 0 mm 5 mps 745 mmHg 41%
    19:00 +32°C° 0 mm 4 mps 746 mmHg 45%
    20:00 +30°C° 0 mm 3 mps 746 mmHg 49%
    21:00 +29°C° 0 mm 3 mps 746 mmHg 52%
    22:00 +28°C° 0 mm 3 mps 746 mmHg 54%
    23:00 +28°C° 0 mm 3 mps 746 mmHg 56%

    Tomorrow, 22 July, Sunday

    Time Temperature Precipitation Wind Pressure Humidity
    00:00 +27°C° 0 mm 3 mps 746 mmHg 58%
    01:00 +27°C° 0 mm 3 mps 746 mmHg 60%
    02:00 +26°C° 0 mm 3 mps 746 mmHg 62%
    03:00 +26°C° 0 mm 3 mps 746 mmHg 63%
    04:00 +26°C° 0 mm 3 mps 746 mmHg 64%
    05:00 +26°C° 0 mm 3 mps 746 mmHg 64%
    06:00 +26°C° 0 mm 3 mps 747 mmHg 65%
    07:00 +27°C° 0 mm 3 mps 747 mmHg 59%
    08:00 +29°C° 0 mm 4 mps 747 mmHg 53%
    09:00 +30°C° 0 mm 4 mps 747 mmHg 48%
    10:00 +32°C° 0 mm 4 mps 747 mmHg 45%
    11:00 +33°C° 0 mm 4 mps 746 mmHg 42%
    12:00 +34°C° 0 mm 5 mps 746 mmHg 40%
    13:00 +34°C° 0 mm 5 mps 746 mmHg 40%
    14:00 +34°C° 0 mm 4 mps 746 mmHg 39%
    15:00 +35°C° 0 mm 4 mps 745 mmHg 39%
    16:00 +34°C° 0 mm 4 mps 745 mmHg 40%
    17:00 +34°C° 0 mm 3 mps 745 mmHg 41%
    18:00 +33°C° 0 mm 3 mps 745 mmHg 43%
    19:00 +31°C° 0 mm 3 mps 745 mmHg 46%
    20:00 +30°C° 0 mm 2 mps 745 mmHg 49%
    21:00 +29°C° 0 mm 2 mps 746 mmHg 52%
    22:00 +29°C° 0 mm 1 mps 746 mmHg 53%
    23:00 +28°C° 0 mm 1 mps 746 mmHg 55%

    Day after tomorrow, 23 July, Monday

    Time Temperature Precipitation Wind Pressure Humidity
    00:00 +28°C° 0 mm 1 mps 746 mmHg 56%
    01:00 +28°C° 0 mm 1 mps 746 mmHg 58%
    02:00 +27°C° 0 mm 1 mps 746 mmHg 60%
    03:00 +27°C° 0 mm 1 mps 746 mmHg 61%
    04:00 +27°C° 0 mm 1 mps 746 mmHg 61%
    05:00 +27°C° 0 mm 1 mps 746 mmHg 61%
    06:00 +27°C° 0 mm 1 mps 746 mmHg 61%
    07:00 +28°C° 0 mm 1 mps 746 mmHg 58%
    08:00 +29°C° 0 mm 1 mps 746 mmHg 55%
    09:00 +30°C° 0 mm 1 mps 746 mmHg 52%
    10:00 +31°C° 0 mm 1 mps 746 mmHg 49%
    11:00 +32°C° 0 mm 1 mps 746 mmHg 46%
    12:00 +32°C° 0 mm 2 mps 746 mmHg 43%
    13:00 +32°C° 0.2 mm 2 mps 746 mmHg 46%
    14:00 +31°C° 0.2 mm 3 mps 746 mmHg 50%
    15:00 +30°C° 0.2 mm 4 mps 746 mmHg 53%
    16:00 +30°C° 0.5 mm 4 mps 746 mmHg 57%
    17:00 +29°C° 0.5 mm 3 mps 746 mmHg 60%
    18:00 +28°C° 0.5 mm 3 mps 746 mmHg 64%
    19:00 +27°C° 3.2 mm 3 mps 746 mmHg 69%
    20:00 +26°C° 3.2 mm 3 mps 746 mmHg 74%
    21:00 +25°C° 3.2 mm 3 mps 746 mmHg 79%
    22:00 +25°C° 5 mm 3 mps 746 mmHg 80%
    23:00 +25°C° 5 mm 2 mps 746 mmHg 82%

    24 July, Tuesday

    Time Temperature Precipitation Wind Pressure Humidity
    00:00 +24°C° 5 mm 2 mps 746 mmHg 84%
    01:00 +24°C° 1.8 mm 2 mps 746 mmHg 84%
    02:00 +24°C° 1.8 mm 2 mps 746 mmHg 85%
    03:00 +24°C° 1.8 mm 1 mps 746 mmHg 85%
    04:00 +24°C° 0.4 mm 1 mps 746 mmHg 84%
    05:00 +24°C° 0.4 mm 1 mps 746 mmHg 83%
    06:00 +24°C° 0.4 mm 1 mps 746 mmHg 82%
    07:00 +26°C° 0.1 mm 1 mps 746 mmHg 76%
    08:00 +27°C° 0.1 mm 2 mps 746 mmHg 70%
    09:00 +28°C° 0.1 mm 2 mps 746 mmHg 63%
    10:00 +29°C° 0 mm 2 mps 746 mmHg 58%
    11:00 +30°C° 0 mm 2 mps 746 mmHg 53%
    12:00 +31°C° 0 mm 2 mps 746 mmHg 48%
    13:00 +32°C° 0 mm 2 mps 746 mmHg 46%
    14:00 +32°C° 0 mm 1 mps 746 mmHg 44%
    15:00 +33°C° 0 mm 1 mps 746 mmHg 42%
    16:00 +33°C° 0 mm 1 mps 746 mmHg 42%
    17:00 +34°C° 0 mm 2 mps 746 mmHg 43%
    18:00 +34°C° 0 mm 2 mps 746 mmHg 43%
    19:00 +32°C° 0 mm 2 mps 747 mmHg 47%
    20:00 +31°C° 0 mm 3 mps 747 mmHg 51%
    21:00 +30°C° 0 mm 3 mps 747 mmHg 54%
    22:00 +29°C° 0 mm 3 mps 747 mmHg 57%
    23:00 +29°C° 0 mm 3 mps 747 mmHg 59%

    25 July, Wednesday

    Time Temperature Precipitation Wind Pressure Humidity
    00:00 +28°C° 0 mm 3 mps 747 mmHg 62%
    01:00 +28°C° 0 mm 3 mps 747 mmHg 64%
    02:00 +27°C° 0 mm 3 mps 747 mmHg 67%
    03:00 +27°C° 0 mm 3 mps 747 mmHg 70%
    04:00 +27°C° 0.1 mm 3 mps 748 mmHg 72%
    05:00 +27°C° 0.1 mm 3 mps 748 mmHg 74%
    06:00 +27°C° 0.1 mm 4 mps 748 mmHg 76%
    07:00 +28°C° 0.3 mm 4 mps 748 mmHg 70%
    08:00 +29°C° 0.3 mm 5 mps 748 mmHg 63%
    09:00 +30°C° 0.3 mm 5 mps 748 mmHg 57%
    10:00 +33°C° 0 mm 5 mps 748 mmHg 52%
    11:00 +34°C° 0 mm 5 mps 748 mmHg 47%
    12:00 +35°C° 0 mm 5 mps 748 mmHg 42%
    13:00 +36°C° 0 mm 5 mps 748 mmHg 40%
    14:00 +36°C° 0 mm 5 mps 747 mmHg 37%
    15:00 +37°C° 0 mm 5 mps 747 mmHg 35%
    16:00 +37°C° 0 mm 4 mps 747 mmHg 35%
    17:00 +36°C° 0 mm 4 mps 747 mmHg 35%
    18:00 +36°C° 0 mm 4 mps 747 mmHg 35%
    19:00 +35°C° 0 mm 4 mps 747 mmHg 37%
    20:00 +34°C° 0 mm 3 mps 747 mmHg 40%
    21:00 +31°C° 0 mm 3 mps 747 mmHg 42%
    22:00 +30°C° 0 mm 3 mps 747 mmHg 42%
    23:00 +30°C° 0 mm 4 mps 747 mmHg 42%

    26 July, Thursday

    Time Temperature Precipitation Wind Pressure Humidity
    00:00 +29°C° 0 mm 4 mps 747 mmHg 42%
    01:00 +28°C° 0 mm 4 mps 747 mmHg 43%
    02:00 +27°C° 0 mm 4 mps 747 mmHg 44%
    03:00 +27°C° 0 mm 4 mps 747 mmHg 45%
    04:00 +27°C° 0 mm 4 mps 747 mmHg 46%
    05:00 +26°C° 0 mm 4 mps 747 mmHg 47%
    06:00 +26°C° 0 mm 5 mps 747 mmHg 48%
    07:00 +28°C° 0 mm 5 mps 747 mmHg 45%
    08:00 +30°C° 0 mm 6 mps 747 mmHg 41%
    09:00 +33°C° 0 mm 6 mps 747 mmHg 38%
    10:00 +34°C° 0 mm 7 mps 747 mmHg 35%
    11:00 +36°C° 0 mm 7 mps 747 mmHg 32%
    12:00 +39°C° 0 mm 7 mps 747 mmHg 29%
    13:00 +39°C° 0 mm 7 mps 747 mmHg 28%
    14:00 +39°C° 0 mm 8 mps 747 mmHg 28%
    15:00 +40°C° 0 mm 8 mps 746 mmHg 28%
    16:00 +39°C° 0 mm 8 mps 747 mmHg 29%
    17:00 +38°C° 0 mm 8 mps 747 mmHg 30%
    18:00 +36°C° 0 mm 7 mps 747 mmHg 31%
    19:00 +35°C° 0 mm 7 mps 747 mmHg 31%
    20:00 +33°C° 0 mm 7 mps 747 mmHg 32%
    21:00 +32°C° 0 mm 6 mps 748 mmHg 33%
    22:00 +30°C° 0.2 mm 6 mps 748 mmHg 37%
    23:00 +29°C° 0.2 mm 6 mps 748 mmHg 41%
    Show more